Simultaneous Nadir Overpasses (SNOs) Predictions

Prediction of SNOs between GOES-14 and NOAA-20 Satellite Orbit:

Table of predicted SNOs for the next 14.0 days since TLE Epoch: 9/9/2023
Index Date Time (GOES-14) GOES-14 Lat,Lon NOAA-20 Lat,Lon Distance(km) Time Diff (sec)
1 09/10/2023 08:56:12 0.38,-108.60 1.31,-112.84 481.67 80
2 09/11/2023 08:40:07 0.39,-108.60 0.30,-108.30 34.73 80
3 09/13/2023 20:40:36 -0.37,-108.52 -0.52,-109.06 62.38 80
4 09/14/2023 20:24:30 -0.38,-108.52 0.49,-104.52 454.64 80
5 09/16/2023 08:43:38 0.36,-108.60 0.65,-109.80 137.19 80
6 09/17/2023 08:27:32 0.37,-108.60 -0.36,-105.27 379.53 80
7 09/18/2023 20:46:47 -0.35,-108.51 -0.81,-110.57 234.46 80
8 09/19/2023 20:30:42 -0.36,-108.51 0.21,-106.04 282.23 80
9 09/21/2023 08:49:49 0.34,-108.59 0.92,-111.32 309.98 80
10 09/22/2023 08:33:43 0.35,-108.58 -0.04,-106.77 206.13 80
